Change the Weather History Date:

Saturday, October 26, 2013

  Actual Average Record
Temperature  
Mean Temperature 80 °F -  
Max Temperature 84 °F 82 °F 89 °F (2002)
Min Temperature 77 °F 69 °F 68 °F (2012)
Cooling Degree Days 16    
Growing Degree Days 30 (Base 50)    
Moisture  
Dew Point 67 °F    
Average Humidity 65    
Maximum Humidity 74    
Minimum Humidity 55    
Precipitation  
Precipitation 0.00 in 0.10 in - ()
Sea Level Pressure  
Sea Level Pressure 30.07 in    
Wind  
Wind Speed 10 mph ()    
Max Wind Speed 16 mph    
Max Gust Speed -    
Visibility 6.6 miles    
Events      
Averages and records for this station are not official NWS values.
T = Trace of Precipitation, MM = Missing Value Source: Averaged Metar Reports

Daily Weather History Graph

Daily Weather History Graph

Search for Another Location

Airport or City:

Trip Planner

Search our weather history database for the weather conditions in past years. The results will help you decide how hot, cold, wet, or windy it might be!

Date:

Astronomy

Oct. 26, 2013 Rise Set
Actual Time 7:13 AM EDT 6:33 PM EDT
Civil Twilight 6:50 AM EDT 6:56 PM EDT
Nautical Twilight 6:23 AM EDT 7:23 PM EDT
Astronomical Twilight 5:56 AM EDT 7:50 PM EDT
Moon No Moon Rise 1:23 PM EDT (10/26)
Length of Visible Light 12h 06m
Length of Day
11h 19m
Waning Gibbous, 53% of the Moon is Illuminated
Oct 26
Waning Gibbous
Oct 26
Last Quarter
Nov 3
New
Nov 10
First Quarter
Nov 17
Full

Hourly Weather History & Observations

Time (EDT) Temp. Heat Index Dew Point Humidity Pressure Visibility Wind Dir Wind Speed Gust Speed Precip Events Conditions
12:00 AM 78.8 °F - 62.6 °F 57% 30.09 in 6.2 mi NNE 11.5 mph - N/A   Mostly Cloudy
1:00 AM 77.0 °F - 64.4 °F 65% 30.08 in 6.2 mi NE 11.5 mph - N/A   Mostly Cloudy
2:00 AM 78 °F - 67 °F 62% 30.08 in 8 mi NE 11.5 mph - -   Partly Cloudy
2:00 AM 78.8 °F - 68.0 °F 69% 30.07 in 6.2 mi NE 11.5 mph - N/A   Mostly Cloudy
3:00 AM 77.0 °F - 64.4 °F 65% 30.04 in 6.2 mi NNE 11.5 mph - N/A   Mostly Cloudy
4:00 AM 77.0 °F - 64.4 °F 65% 30.03 in 6.2 mi NE 11.5 mph - N/A   Mostly Cloudy
5:00 AM 79 °F - 67 °F 58% 30.03 in 8 mi NE 11.5 mph - -   Partly Cloudy
5:00 AM 78.8 °F - 66.2 °F 65% 30.03 in 6.2 mi NE 11.5 mph - N/A   Mostly Cloudy
6:00 AM 77.0 °F - 64.4 °F 65% 30.05 in 6.2 mi NE 9.2 mph - N/A   Mostly Cloudy
8:00 AM 78 °F - 67 °F 60% 30.09 in 8 mi ENE 13.8 mph - -   Partly Cloudy
8:00 AM 78.8 °F - 66.2 °F 65% 30.09 in 6.2 mi ENE 13.8 mph - N/A   Mostly Cloudy
9:00 AM 80.6 °F 83.9 °F 69.8 °F 70% 30.10 in 6.2 mi East 11.5 mph - N/A   Mostly Cloudy
10:00 AM 80.6 °F 84.6 °F 71.6 °F 74% 30.11 in 6.2 mi ENE 11.5 mph - N/A   Mostly Cloudy
11:00 AM 82 °F - 70 °F 58% 30.12 in 8 mi ENE 16.1 mph - -   Partly Cloudy
11:00 AM 82.4 °F 86.3 °F 69.8 °F 66% 30.11 in 6.2 mi ENE 16.1 mph - N/A   Mostly Cloudy
12:00 PM 82.4 °F 88.2 °F 73.4 °F 74% 30.11 in 6.2 mi ENE 11.5 mph - N/A   Mostly Cloudy
1:00 PM 82.4 °F 88.2 °F 73.4 °F 74% 30.09 in 6.2 mi East 11.5 mph - N/A   Mostly Cloudy
2:00 PM 83 °F - 69 °F 55% 30.08 in 8 mi East 16.1 mph - -   Scattered Clouds
2:00 PM 82.4 °F 86.3 °F 69.8 °F 66% 30.07 in 6.2 mi East 16.1 mph - N/A   Mostly Cloudy
3:00 PM 82.4 °F 84.6 °F 66.2 °F 58% 30.05 in 6.2 mi ENE 5.8 mph - N/A   Mostly Cloudy
4:00 PM 80.6 °F 82.7 °F 66.2 °F 61% 30.04 in 6.2 mi NNE 5.8 mph - N/A   Mostly Cloudy
6:00 PM 78.8 °F - 66.2 °F 65% 30.04 in 6.2 mi ENE 11.5 mph - N/A   Mostly Cloudy
7:00 PM 78.8 °F - 64.4 °F 61% 30.05 in 6.2 mi ENE 11.5 mph - N/A   Mostly Cloudy
8:00 PM 79 °F - 68 °F 62% 30.06 in 8 mi NNE 9.2 mph - -   Scattered Clouds
8:00 PM 78.8 °F - 68.0 °F 69% 30.05 in 6.2 mi NNE 9.2 mph - N/A   Mostly Cloudy
9:00 PM 78.8 °F - 66.2 °F 65% 30.07 in - North - - N/A   Mostly Cloudy
10:00 PM 78.8 °F - 64.4 °F 61% 30.08 in 6.2 mi NE 10.4 mph - N/A   Scattered Clouds
11:00 PM 78 °F - 69 °F 67% 30.07 in 8 mi NE 6.9 mph - -   Partly Cloudy
11:00 PM 78.8 °F - 69.8 °F 74% 30.07 in 6.2 mi NE 6.9 mph - N/A   Scattered Clouds